When you browse on this site, cookies collect data to enhance your experience and personalize the content and advertising you see.
Visit our Privacy Policy to learn more. By continuing to use the site, you agree to this use of cookies and data.
  • în România
  • Lista ţărilor
  • Pe 7 zile
  • Temperatura apei
  • Hartă satelitară
  • Meteo pe hartă
  • Widget-uri
  • user-avatar
    Intrare

    Meteo pe oră la Midlothian

    Astăzi, 16 Ianuarie, Miercuri

    Timp Temperatura Precipitaţii Vânt Presiune Umiditate
    00:00 +5°C° 0 mm 8 m/s 726 mmHg 83%
    01:00 +5°C° 0 mm 8 m/s 725 mmHg 83%
    02:00 +5°C° 0 mm 8 m/s 725 mmHg 83%
    03:00 +5°C° 0 mm 8 m/s 724 mmHg 82%
    04:00 +5°C° 0.3 mm 8 m/s 723 mmHg 84%
    05:00 +5°C° 0.3 mm 7 m/s 722 mmHg 86%
    06:00 +5°C° 0.3 mm 7 m/s 722 mmHg 87%
    07:00 +4°C° 0.4 mm 7 m/s 721 mmHg 86%
    08:00 +4°C° 0.4 mm 6 m/s 721 mmHg 85%
    09:00 +3°C° 0.4 mm 6 m/s 721 mmHg 84%
    10:00 +3°C° 0 mm 7 m/s 721 mmHg 81%
    11:00 +3°C° 0 mm 7 m/s 721 mmHg 77%
    12:00 +2°C° 0 mm 8 m/s 721 mmHg 74%
    13:00 +3°C° 0 mm 7 m/s 721 mmHg 73%
    14:00 +2°C° 0 mm 7 m/s 721 mmHg 73%
    15:00 +2°C° 0 mm 7 m/s 721 mmHg 72%
    16:00 0°C° 0 mm 7 m/s 721 mmHg 75%
    17:00 0°C° 0 mm 7 m/s 721 mmHg 77%
    18:00 -1°C° 0 mm 7 m/s 722 mmHg 79%
    19:00 -1°C° 0.2 mm 6 m/s 722 mmHg 80%
    20:00 -1°C° 0.2 mm 6 m/s 723 mmHg 81%
    21:00 +1°C° 0.2 mm 6 m/s 724 mmHg 82%
    22:00 -1°C° 0.3 mm 7 m/s 725 mmHg 83%
    23:00 -1°C° 0.3 mm 7 m/s 726 mmHg 84%

    Mâine, 17 Ianuarie, Joi

    Timp Temperatura Precipitaţii Vânt Presiune Umiditate
    00:00 -1°C° 0.3 mm 8 m/s 727 mmHg 85%
    01:00 -2°C° 0.1 mm 8 m/s 728 mmHg 80%
    02:00 -3°C° 0.1 mm 7 m/s 729 mmHg 75%
    03:00 -4°C° 0.1 mm 6 m/s 730 mmHg 70%
    04:00 -4°C° 0 mm 6 m/s 731 mmHg 70%
    05:00 -4°C° 0 mm 7 m/s 732 mmHg 70%
    06:00 -6°C° 0 mm 7 m/s 733 mmHg 70%
    07:00 -5°C° 0 mm 6 m/s 733 mmHg 69%
    08:00 -5°C° 0 mm 6 m/s 734 mmHg 69%
    09:00 -5°C° 0 mm 6 m/s 734 mmHg 68%
    10:00 -4°C° 0 mm 6 m/s 735 mmHg 67%
    11:00 -2°C° 0 mm 5 m/s 736 mmHg 67%
    12:00 -1°C° 0 mm 5 m/s 736 mmHg 66%
    13:00 -1°C° 0 mm 5 m/s 737 mmHg 67%
    14:00 -1°C° 0 mm 4 m/s 737 mmHg 68%
    15:00 0°C° 0 mm 3 m/s 737 mmHg 70%
    16:00 -1°C° 0 mm 3 m/s 737 mmHg 73%
    17:00 -1°C° 0 mm 3 m/s 737 mmHg 76%
    18:00 -2°C° 0 mm 2 m/s 737 mmHg 79%
    19:00 -2°C° 0 mm 2 m/s 737 mmHg 78%
    20:00 -2°C° 0 mm 2 m/s 737 mmHg 77%
    21:00 -2°C° 0 mm 2 m/s 737 mmHg 77%
    22:00 -2°C° 0 mm 2 m/s 737 mmHg 76%
    23:00 -2°C° 0 mm 2 m/s 737 mmHg 75%

    Poimâine, 18 Ianuarie, Vineri

    Timp Temperatura Precipitaţii Vânt Presiune Umiditate
    00:00 -2°C° 0 mm 2 m/s 737 mmHg 74%
    01:00 -2°C° 0 mm 2 m/s 736 mmHg 73%
    02:00 -3°C° 0 mm 2 m/s 736 mmHg 73%
    03:00 -3°C° 0 mm 2 m/s 735 mmHg 72%
    04:00 -4°C° 0 mm 3 m/s 735 mmHg 71%
    05:00 -4°C° 0 mm 3 m/s 735 mmHg 70%
    06:00 -2°C° 0 mm 3 m/s 734 mmHg 69%
    07:00 -3°C° 0 mm 4 m/s 734 mmHg 67%
    08:00 -3°C° 0 mm 4 m/s 733 mmHg 65%
    09:00 -3°C° 0 mm 4 m/s 733 mmHg 63%
    10:00 -2°C° 0 mm 5 m/s 733 mmHg 62%
    11:00 -2°C° 0 mm 5 m/s 733 mmHg 62%
    12:00 -2°C° 0 mm 5 m/s 732 mmHg 61%
    13:00 -2°C° 0.2 mm 5 m/s 732 mmHg 70%
    14:00 -3°C° 0.2 mm 6 m/s 732 mmHg 78%
    15:00 -4°C° 0.2 mm 6 m/s 731 mmHg 87%
    16:00 -3°C° 0.3 mm 6 m/s 731 mmHg 88%
    17:00 -2°C° 0.3 mm 5 m/s 731 mmHg 90%
    18:00 -2°C° 0.3 mm 5 m/s 731 mmHg 91%
    19:00 -2°C° 0.1 mm 5 m/s 731 mmHg 92%
    20:00 -1°C° 0.1 mm 5 m/s 731 mmHg 94%
    21:00 -1°C° 0.1 mm 5 m/s 731 mmHg 95%
    22:00 -1°C° 0.1 mm 5 m/s 731 mmHg 96%
    23:00 0°C° 0.1 mm 5 m/s 731 mmHg 96%

    19 Ianuarie, Sâmbătă

    Timp Temperatura Precipitaţii Vânt Presiune Umiditate
    00:00 0°C° 0.1 mm 5 m/s 731 mmHg 97%
    01:00 0°C° 0.1 mm 4 m/s 731 mmHg 97%
    02:00 0°C° 0.1 mm 4 m/s 731 mmHg 97%
    03:00 0°C° 0.1 mm 4 m/s 731 mmHg 98%
    04:00 0°C° 0.1 mm 5 m/s 731 mmHg 97%
    05:00 -1°C° 0.1 mm 6 m/s 732 mmHg 97%
    06:00 +1°C° 0.1 mm 6 m/s 732 mmHg 96%
    07:00 0°C° 0.2 mm 7 m/s 732 mmHg 94%
    08:00 0°C° 0.2 mm 7 m/s 733 mmHg 93%
    09:00 0°C° 0.2 mm 8 m/s 733 mmHg 91%
    10:00 0°C° 0.1 mm 8 m/s 734 mmHg 90%
    11:00 0°C° 0.1 mm 8 m/s 734 mmHg 89%
    12:00 0°C° 0.1 mm 8 m/s 734 mmHg 88%
    13:00 0°C° 0.1 mm 7 m/s 734 mmHg 89%
    14:00 0°C° 0.1 mm 7 m/s 735 mmHg 89%
    15:00 0°C° 0.1 mm 7 m/s 735 mmHg 90%
    16:00 +1°C° 0 mm 6 m/s 735 mmHg 91%
    17:00 -1°C° 0 mm 6 m/s 736 mmHg 91%
    18:00 -1°C° 0 mm 6 m/s 736 mmHg 92%
    19:00 0°C° 0 mm 5 m/s 737 mmHg 92%
    20:00 0°C° 0 mm 5 m/s 737 mmHg 92%
    21:00 0°C° 0 mm 4 m/s 738 mmHg 92%
    22:00 0°C° 0 mm 4 m/s 738 mmHg 92%
    23:00 0°C° 0 mm 3 m/s 738 mmHg 93%

    20 Ianuarie, Duminică

    Timp Temperatura Precipitaţii Vânt Presiune Umiditate
    00:00 0°C° 0 mm 3 m/s 739 mmHg 93%
    01:00 0°C° 0 mm 3 m/s 739 mmHg 93%
    02:00 -1°C° 0 mm 2 m/s 739 mmHg 93%
    03:00 -1°C° 0 mm 2 m/s 739 mmHg 93%
    04:00 -1°C° 0 mm 2 m/s 740 mmHg 93%
    05:00 -2°C° 0 mm 2 m/s 740 mmHg 93%
    06:00 0°C° 0 mm 1 m/s 740 mmHg 93%
    07:00 0°C° 0 mm 1 m/s 741 mmHg 93%
    08:00 0°C° 0 mm 1 m/s 741 mmHg 93%
    09:00 0°C° 0 mm 1 m/s 742 mmHg 93%
    10:00 +1°C° 0 mm 1 m/s 742 mmHg 90%
    11:00 +3°C° 0 mm 1 m/s 742 mmHg 87%
    12:00 +4°C° 0 mm 1 m/s 743 mmHg 85%
    13:00 +3°C° 0 mm 1 m/s 743 mmHg 86%
    14:00 +3°C° 0 mm 1 m/s 743 mmHg 88%
    15:00 +3°C° 0 mm 1 m/s 743 mmHg 90%
    16:00 +2°C° 0 mm 1 m/s 743 mmHg 90%
    17:00 +2°C° 0 mm 1 m/s 744 mmHg 91%
    18:00 +1°C° 0 mm 1 m/s 744 mmHg 92%
    19:00 +1°C° 0 mm 1 m/s 744 mmHg 92%
    20:00 0°C° 0 mm 1 m/s 744 mmHg 92%
    21:00 0°C° 0 mm 1 m/s 745 mmHg 92%
    22:00 0°C° 0 mm 1 m/s 745 mmHg 92%
    23:00 0°C° 0 mm 1 m/s 745 mmHg 92%

    21 Ianuarie, Luni

    Timp Temperatura Precipitaţii Vânt Presiune Umiditate
    00:00 0°C° 0 mm 1 m/s 745 mmHg 92%
    01:00 -2°C° 0 mm 2 m/s 744 mmHg 93%
    02:00 -2°C° 0 mm 2 m/s 744 mmHg 93%
    03:00 -2°C° 0 mm 2 m/s 744 mmHg 93%
    04:00 -2°C° 0 mm 2 m/s 743 mmHg 93%
    05:00 -2°C° 0 mm 3 m/s 742 mmHg 94%
    06:00 -2°C° 0 mm 3 m/s 742 mmHg 94%
    07:00 -2°C° 0 mm 4 m/s 741 mmHg 94%
    08:00 -2°C° 0 mm 5 m/s 741 mmHg 94%
    09:00 -1°C° 0 mm 5 m/s 740 mmHg 94%
    10:00 -1°C° 0 mm 6 m/s 739 mmHg 91%
    11:00 +1°C° 0 mm 6 m/s 738 mmHg 88%
    12:00 0°C° 0 mm 7 m/s 737 mmHg 86%
    13:00 +2°C° 0.1 mm 7 m/s 736 mmHg 85%
    14:00 +1°C° 0.1 mm 8 m/s 734 mmHg 84%
    15:00 +1°C° 0.1 mm 8 m/s 732 mmHg 83%
    16:00 +1°C° 0.2 mm 9 m/s 731 mmHg 84%
    17:00 0°C° 0.2 mm 9 m/s 730 mmHg 84%
    18:00 0°C° 0.2 mm 10 m/s 729 mmHg 84%
    19:00 0°C° 0.5 mm 8 m/s 729 mmHg 84%
    20:00 -1°C° 0.5 mm 6 m/s 728 mmHg 85%
    21:00 0°C° 0.5 mm 5 m/s 727 mmHg 85%
    22:00 -1°C° 0 mm 5 m/s 727 mmHg 84%
    23:00 -2°C° 0 mm 6 m/s 726 mmHg 84%
    Arată mai mult